Weather History for PAHN - March, 2013

Change the Weather History Date:

Sunday, March 3, 2013

  Actual Average Record
Temperature  
Mean Temperature 32 °F -  
Max Temperature 37 °F 31 °F 45 °F (2005)
Min Temperature 26 °F 23 °F 1 °F (2007)
Degree Days  
Heating Degree Days 34    
Moisture  
Dew Point 25 °F    
Average Humidity 80    
Maximum Humidity 92    
Minimum Humidity 57    
Precipitation  
Precipitation 0.00 in - - ()
Sea Level Pressure  
Sea Level Pressure 30.40 in    
Wind  
Wind Speed 7 mph (WNW)    
Max Wind Speed 16 mph    
Max Gust Speed 20 mph    
Visibility 10 miles    
Events      
Averages and records for this station are not official NWS values.
T = Trace of Precipitation, MM = Missing Value Source: NWS Daily Summary

Daily Weather History Graph

Daily Weather History Graph

Search for Another Location

Airport or City:

Trip Planner

Search our weather history database for the weather conditions in past years. The results will help you decide how hot, cold, wet, or windy it might be!

Date:

Astronomy

Mar. 03, 2013 Rise Set
Actual Time 6:51 AM AKST 5:36 PM AKST
Civil Twilight 6:11 AM AKST 6:17 PM AKST
Nautical Twilight 5:24 AM AKST 7:04 PM AKST
Astronomical Twilight 4:36 AM AKST 7:53 PM AKST
Moon 12:57 AM AKST 8:36 AM AKST
Length of Visible Light 12h 06m
Length of Day
10h 44m
Waning Gibbous, 62% of the Moon is Illuminated
Mar 3
Waning Gibbous
Mar 4
Last Quarter
Mar 11
New
Mar 19
First Quarter
Mar 27
Full

Hourly Weather History & Observations

Time (AKST) Temp. Windchill Dew Point Humidity Pressure Visibility Wind Dir Wind Speed Gust Speed Precip Events Conditions
12:54 AM 28.9 °F 21.1 °F 26.1 °F 89% 30.23 in 10.0 mi WNW 8.1 mph - N/A   Clear
1:54 AM 28.9 °F 21.1 °F 25.0 °F 85% 30.26 in 10.0 mi WNW 8.1 mph - N/A   Clear
2:54 AM 27.0 °F 20.5 °F 24.1 °F 89% 30.28 in 10.0 mi WNW 5.8 mph - N/A   Clear
3:54 AM 27.0 °F 19.5 °F 24.1 °F 89% 30.30 in 10.0 mi NW 6.9 mph - N/A   Clear
4:54 AM 26.1 °F - 24.1 °F 92% 30.32 in 10.0 mi Calm Calm - N/A   Clear
5:54 AM 26.1 °F - 23.0 °F 88% 30.33 in 10.0 mi Calm Calm - N/A   Clear
6:54 AM 26.1 °F 16.2 °F 23.0 °F 88% 30.33 in 10.0 mi WNW 10.4 mph - N/A   Overcast
7:54 AM 27.0 °F 17.3 °F 23.0 °F 85% 30.35 in 10.0 mi WNW 10.4 mph - N/A   Mostly Cloudy
8:54 AM 28.9 °F 19.8 °F 24.1 °F 82% 30.36 in 10.0 mi WNW 10.4 mph - N/A   Mostly Cloudy
9:54 AM 32.0 °F 23.6 °F 24.1 °F 73% 30.38 in 10.0 mi WNW 10.4 mph - N/A   Overcast
10:54 AM 34.0 °F 25.0 °F 25.0 °F 70% 30.39 in 10.0 mi WNW 12.7 mph - N/A   Overcast
11:54 AM 35.1 °F 25.9 °F 23.0 °F 61% 30.40 in 10.0 mi WNW 13.8 mph - N/A   Clear
12:54 PM 37.9 °F 30.9 °F 24.1 °F 57% 30.42 in 10.0 mi West 10.4 mph - N/A   Clear
1:54 PM 36.0 °F 33.3 °F 28.9 °F 76% 30.43 in 10.0 mi South 3.5 mph - N/A   Mostly Cloudy
2:54 PM 36.0 °F 33.3 °F 28.9 °F 76% 30.43 in 10.0 mi South 3.5 mph - N/A   Overcast
3:54 PM 37.0 °F - 28.0 °F 70% 30.44 in 10.0 mi Calm Calm - N/A   Partly Cloudy
4:54 PM 34.0 °F - 28.0 °F 79% 30.45 in 10.0 mi Calm Calm - N/A   Partly Cloudy
5:54 PM 30.9 °F - 27.0 °F 85% 30.46 in 10.0 mi Calm Calm - N/A   Clear
6:54 PM 30.0 °F - 28.0 °F 92% 30.48 in 10.0 mi Calm Calm - N/A   Clear
7:54 PM 33.1 °F 25.5 °F 26.1 °F 75% 30.49 in 10.0 mi NW 9.2 mph - N/A   Clear
8:54 PM 32.0 °F 23.0 °F 25.0 °F 75% 30.50 in 10.0 mi NW 11.5 mph - N/A   Scattered Clouds
9:54 PM 30.0 °F 20.0 °F 25.0 °F 82% 30.50 in 10.0 mi WNW 12.7 mph - N/A   Clear
10:54 PM 30.9 °F 20.7 °F 23.0 °F 72% 30.51 in 10.0 mi NW 13.8 mph 19.6 mph N/A   Partly Cloudy
11:54 PM 28.9 °F 17.3 °F 23.0 °F 78% 30.52 in 10.0 mi WNW 16.1 mph - N/A   Clear